Regional Weather Roundup
Issued by NWS

Home | Current Version | Previous Version | Text Only | Print | Product List | Glossary Off
Versions: 1 2 3 4 5 6 7 8 9 10 11 12 13 14 15 16 17 18 19 20 21 22 23 24 25 26 27 28 29 30 31 32 33 34 35 36 37 38 39 40 41 42 43 44 45 46 47 48 49 50

000
ASUS43 KMKX 310411
RWRWI

WISCONSIN REGIONAL WEATHER ROUNDUP
NATIONAL WEATHER SERVICE MILWAUKEE/SULLIVAN WI
1100 PM CDT TUE AUG 30 2016

NOTE: "FAIR" INDICATES FEW OR NO CLOUDS BELOW 12,000 FEET WITH NO
SIGNIFICANT WEATHER AND/OR OBSTRUCTIONS TO VISIBILITY.

WIZ001-002-006>008-014>016-023>028-310500-
NORTHWEST WISCONSIN

CITY           SKY/WX    TMP DP  RH WIND       PRES   REMARKS
SUPERIOR ARPT  CLEAR     52  52  99 CALM      30.17R
ASHLAND        CLEAR     57  51  80 NW6       30.16S
HAYWARD        CLEAR     54  52  93 CALM      30.17S
SIREN          CLEAR     55  53  94 CALM      30.17F
CUMBERLAND     CLEAR     59  52  77 N3        30.17S
RICE LAKE      CLEAR     58  54  84 NW3       30.17F
CHETEK         NOT AVBL
LADYSMITH      CLEAR     59  55  84 N5        30.18R
EAU CLAIRE     CLEAR     63  56  78 N5        30.14R
MENOMONIE      CLEAR     62  58  88 CALM      30.15S
NEW RICHMOND   CLEAR     59  57  93 CALM      30.17S
OSCEOLA        CLEAR     60  60 100 CALM      30.19S
$$

WIZ003>005-009-010-017-018-310500-
NORTH CENTRAL WISCONSIN

CITY           SKY/WX    TMP DP  RH WIND       PRES   REMARKS
MANITOWISH WTR NOT AVBL
ARBOR VITAE    CLEAR     53  51  92 CALM      30.16R
WOODRUFF       CLEAR     53  51  92 CALM      30.16R
RHINELANDER    CLEAR     53  49  86 CALM      30.16S
EAGLE RIVER    CLEAR     50  50 100 CALM      30.15S
LAND O LAKES   CLEAR     49  48  99 CALM      30.16S
PHILLIPS       CLEAR     55  55 100 CALM      30.16S
TOMAHAWK       CLEAR     50  48  92 CALM      30.16S
MEDFORD        CLEAR     57  55  92 NE3       30.15S
MERRILL        CLEAR     55  51  86 CALM      30.15S
$$

WIZ029-030-035-036-043>047-310500-
CENTRAL WISCONSIN

CITY           SKY/WX    TMP DP  RH WIND       PRES   REMARKS
WAUSAU         CLEAR     64  49  57 VRB5      30.13R
MOSINEE        CLEAR     63  52  67 N7        30.15R
MARSHFIELD     CLEAR     65  55  70 N8        30.14R
STEVENS POINT  CLEAR     63  57  81 N5        30.13R
WAUPACA        PTCLDY    68  63  83 NW5       30.10R
WAUTOMA        MOCLDY    69  63  81 NW5       30.10R
WISC RAPIDS    PTCLDY    66  61  84 N8        30.13R
CAMP DOUGLAS   PTCLDY    61  59  94 W6        30.12R
$$

WIZ011>013-019>022-031-037>040-048>050-310500-
NORTHEAST WISCONSIN

CITY           SKY/WX    TMP DP  RH WIND       PRES   REMARKS
ANTIGO         CLEAR     55  51  85 N5        30.15S
SHAWANO        CLEAR     69  60  73 N12       30.11R
OCONTO         NOT AVBL
STURGEON BAY   NOT AVBL
GREEN BAY      PTCLDY    70  66  87 N13       30.08R
MANITOWOC      CLOUDY    73  64  73 N15G22    30.06R
APPLETON       MOCLDY    72  59  64 N10       30.07S
CLINTONVILLE   CLEAR     68  57  68 N7        30.10R
OSHKOSH        MOCLDY    71  63  75 N6        30.07R
$$

WIZ032>034-041-042-053>061-310500-
SOUTHWEST WISCONSIN

CITY           SKY/WX    TMP DP  RH WIND       PRES   REMARKS
LA CROSSE      CLOUDY    67  63  87 N6        30.13R
SPARTA         PTCLDY    60  60 100 CALM      30.14R
VIROQUA        CLOUDY    64  61  88 N5        30.14S
BOSCOBEL       CLOUDY    69  67  93 CALM      30.11R
PRAIRIE DU CHI CLEAR     69  65  88 CALM      30.11S
PLATTEVILLE    CLEAR     68  68 100 CALM      30.11S
$$

WIZ056-057-062-063-064-067-068-310500-
SOUTH CENTRAL WISCONSIN

CITY           SKY/WX    TMP DP  RH WIND       PRES   REMARKS
REEDSBURG      NOT AVBL
BARABOO/DELLS  PTCLDY    68  62  79 NW5       30.11R
LONE ROCK      PTCLDY    71  64  78 N9        30.10S
MINERAL POINT  CLEAR     70  68  94 NW7       30.11R
MADISON        MOCLDY    69  66  90 NW5       30.08R
MIDDLETON      PTCLDY    68  68  99 NW5       30.10R
WATERTOWN      CLEAR     70  67  90 NW5       30.07R
MONROE         MOCLDY    70  68  94 NW6       30.09S
JANESVILLE     CLOUDY    70  70 100 CALM      30.08S FOG
$$

WIZ051-052-058>065-066-070>072-310500-
SOUTHEAST WISCONSIN

CITY           SKY/WX    TMP DP  RH WIND       PRES   REMARKS
MILWAUKEE      MOCLDY    73  68  84 W5        30.05S
WAUKESHA       CLEAR     66  64  94 W3        30.08S
MILWAUKEE/TIMM CLEAR     68  64  88 W3        30.06S
RACINE         CLOUDY    70  68  93 W7        30.07S
BURLINGTON     CLOUDY    65  64  99 CALM      30.07S FOG
KENOSHA        CLOUDY    68  67  96 W5        30.07R
FOND DU LAC    MOCLDY    70  65  84 NW5       30.07R
SHEBOYGAN      CLEAR     70  65  84 N8        30.05S
WEST BEND      CLEAR     70  64  83 NW5       30.07R
JUNEAU         CLEAR     70  65  83 NW5       30.08S
$$

LSZ147-162-310500-
LAKE SUPERIOR

STATION/POSITION TIME  TEMP    WIND        PRES    WAVE
                       AIR SEA DIR/SP/G            HT/PER
                 (UTC) (F)     (DEG/KT/KT) (MB)    (FT/S)
W MID LAKE BUOY  0350   69 68  330/ 10/ 12 1019.4S   1/ 3
DEVILS ISLAND    0300   69     330/ 13/ 14 1020.4S
PORT WING        0320   69     320/  5/ 13 1021.3R
SAXON HARBOR     0300   60     180/  4/  5 1020.3R
$$

LMZ867-665-643>646-310500-
LAKE MICHIGAN

STATION/POSITION TIME  TEMP    WIND        PRES    WAVE
                       AIR SEA DIR/SP/G            HT/PER
                 (UTC) (F)     (DEG/KT/KT) (MB)    (FT/S)
CHAMBERS ISLAND  0340   69     360/ 18/ 21 1018.6R
S GREEN BAY BUOY 0130   75 74  360/  8/ 10 1016.8
N MID LAKE BUOY  0350   68 71   10/ 17/ 19 1017.8R   3/ 4
NORTHPORT PIER   0300   69      10/ 14/ 17 1018.6R
SISTER BAY       0207   69      10/ 14/ 22   N/A
ALGOMA LAKESHORE 0300           30/ 13/ 22   N/A
KEWAUNEE LAKESHO 0300   73      20/ 11/ 15 1017.3R
SHEBOYGAN LAKESH 0400   74     340/  9/ 10 1016.9R
PORT WASHINGTON  0340   73     270/  4/  5 1017.9R
ATWATER BUOY     0400   70     280/  6/  8   N/A
MILWAUKEE LAKESH 0310   74     290/  7/  8   N/A
S MID LAKE BUOY  0350   74 75  250/  8/  8 1016.9R   1
KENOSHA   LAKESH 0400   72     270/  9/ 10 1017.6R
$$

TC  - TEMPERATURE IN CELSIUS
VSB - VISIBILITY IN STATUTE MILES
WCI - WIND CHILL INDEX
HX  - HEAT INDEX





USA.gov is the U.S. government's official web portal to all federal, state and local government web resources and services.